ZTF彗星

P/2022 P2 ( ZTF )

English version
Home page
Updated on March 27, 2023

---------------------------------------------------------------------

・ プロフィール

発見日 2022年8月15日
発見光度 18.5等
発見者 Zwicky Transient Facility

・ 写真集

・ 軌道要素

Epoch 2023 Feb. 25.0 TT = JDT 2460000.5
T 2022 July 10.81768 TT                                 Rudenko
q   1.9823790            (2000.0)            P               Q
n   0.10376303     Peri.  137.60356     +0.34632877     -0.91636439
a   4.4851222      Node   291.22933     +0.79253517     +0.40034521
e   0.5580100      Incl.   12.44198     +0.50194062     +0.00015080
P   9.50
>From 162 observations 2022 Aug. 9-2023 Mar. 18, mean residual 0".8.

・ 光度変化

        m1 =  13.5 + 5 logΔ + 10.0 log r           [   , 30]  (              〜2022年 8月 9日)
        m1 = -15   + 5 logΔ + 50   log r(t + 400)  [ 30,142]  (2022年 8月 9日〜2022年11月29日)
        m1 =  13.5 + 5 logΔ + 10.0 log r           [142,   ]  (2022年11月29日〜              )

---------------------------------------------------------------------

軌道要素はM.P.E.C. 2023-F81に掲載されたものです。
光度グラフはComet for Windowsで作成したものです。

---------------------------------------------------------------------

Copyright(C) Seiichi Yoshida (comet@aerith.net). All rights reserved.